Weather History for Caslav, Czech Republic

Change the Weather History Date:

Monday, February 11, 2013

  Actual Average Record
Temperature  
Mean Temperature 27 °F -  
Max Temperature 30 °F - - ()
Min Temperature 24 °F - - ()
Degree Days  
Heating Degree Days 38    
Moisture  
Dew Point 21 °F    
Average Humidity 77    
Maximum Humidity 93    
Minimum Humidity 69    
Precipitation  
Precipitation 0.00 in - - ()
Sea Level Pressure  
Sea Level Pressure 29.79 in    
Wind  
Wind Speed 5 mph ()    
Max Wind Speed 15 mph    
Max Gust Speed -    
Visibility 6.2 miles    
Events      
T = Trace of Precipitation, MM = Missing Value Source: Averaged Metar Reports

Daily Weather History Graph

Daily Weather History Graph

Search for Another Location

Airport:

Trip Planner

Search our weather history database for the weather conditions in past years. The results will help you decide how hot, cold, wet, or windy it might be!

Date:

Astronomy

Feb. 11, 2013 Rise Set
Actual Time 7:15 AM CET 5:10 PM CET
Civil Twilight 6:42 AM CET 5:43 PM CET
Nautical Twilight 6:04 AM CET 6:22 PM CET
Astronomical Twilight 5:26 AM CET 6:59 PM CET
Moon 7:18 AM CET (2/11) 7:03 PM CET (2/11)
Length of Visible Light 11h 01m
Length of Day
9h 54m
New Moon, 2% of the Moon is Illuminated
Feb 11
New Moon
Feb 17
First Quarter
Feb 25
Full
Mar 4
Last Quarter
Mar 11
New

Hourly Weather History & Observations

Time (CET) Temp. Windchill Dew Point Humidity Pressure Visibility Wind Dir Wind Speed Gust Speed Precip Events Conditions
12:00 AM 26.6 °F - 21.2 °F 80% 29.89 in 6.2 mi North 1.2 mph - N/A   Scattered Clouds
1:00 AM 26.6 °F - 21.2 °F 80% 29.86 in 6.2 mi NE 2.3 mph - N/A   Overcast
2:00 AM 26.6 °F - 21.2 °F 80% 29.86 in - East 1.2 mph - N/A   Clear
3:00 AM 24.8 °F - 21.2 °F 86% 29.83 in 6.2 mi Calm Calm - N/A   Mostly Cloudy
4:00 AM 24.8 °F - 21.2 °F 86% 29.83 in 6.2 mi North 1.2 mph - N/A   Mostly Cloudy
5:00 AM 24.8 °F - 23.0 °F 93% 29.80 in 6.2 mi Calm Calm - N/A   Overcast
6:00 AM 26.6 °F 19.1 °F 21.2 °F 80% 29.80 in 6.2 mi East 6.9 mph - N/A   Overcast
7:00 AM 26.6 °F 21.2 °F 21.2 °F 80% 29.80 in 6.2 mi East 4.6 mph - N/A   Mostly Cloudy
8:00 AM 24.8 °F 20.5 °F 21.2 °F 86% 29.80 in 6.2 mi East 3.5 mph - N/A   Mostly Cloudy
9:00 AM 26.6 °F 19.1 °F 23.0 °F 86% 29.80 in 6.2 mi East 6.9 mph - N/A   Mostly Cloudy
10:00 AM 26.6 °F 18.2 °F 23.0 °F 86% 29.77 in 6.2 mi ENE 8.1 mph - N/A   Overcast
11:00 AM 28.4 °F 18.0 °F 21.2 °F 74% 29.77 in 6.2 mi ESE 12.7 mph - N/A   Overcast
12:00 PM 28.4 °F 17.0 °F 19.4 °F 69% 29.77 in 6.2 mi SE 15.0 mph - N/A   Overcast
1:00 PM 28.4 °F 19.1 °F 19.4 °F 69% 29.77 in 6.2 mi ESE 10.4 mph - N/A   Overcast
2:00 PM 28.4 °F 19.1 °F 19.4 °F 69% 29.77 in 6.2 mi ESE 10.4 mph - N/A   Overcast
3:00 PM 28.4 °F 18.5 °F 21.2 °F 74% 29.77 in 6.2 mi SE 11.5 mph - N/A   Overcast
4:00 PM 28.4 °F 19.7 °F 19.4 °F 69% 29.77 in 6.2 mi ESE 9.2 mph - N/A   Overcast
5:00 PM 28.4 °F 17.0 °F 19.4 °F 69% 29.77 in 6.2 mi SE 15.0 mph - N/A   Overcast
6:00 PM 28.4 °F 19.7 °F 19.4 °F 69% 29.77 in 6.2 mi East 9.2 mph - N/A   Overcast
7:00 PM 30.2 °F 22.6 °F 21.2 °F 69% 29.77 in 6.2 mi East 8.1 mph - N/A   Overcast
8:00 PM 30.2 °F 21.3 °F 21.2 °F 69% 29.77 in 6.2 mi ESE 10.4 mph - N/A   Overcast
9:00 PM 28.4 °F 22.2 °F 23.0 °F 80% 29.74 in 6.2 mi East 5.8 mph - N/A   Overcast
10:00 PM 28.4 °F 20.4 °F 23.0 °F 80% 29.77 in 6.2 mi East 8.1 mph - N/A   Overcast
11:00 PM 30.2 °F 21.9 °F 21.2 °F 69% 29.74 in 6.2 mi ESE 9.2 mph - N/A   Overcast